Time,TemperatureF,DewpointF,PressureIn,WindDirection,WindDirectionDegrees,WindSpeedMPH,WindSpeedGustMPH,Humidity,HourlyPrecipIn,Conditions,Clouds,dailyrainin,SoftwareType,DateUTC
2013-05-07 00:00:00,81.0,72.3,29.99,ESE,115,9.0,13.0,75,0.00,CLR,,0.00,WeatherDisplay:10.37,2013-05-07 06:00:00,
2013-05-07 00:15:00,81.0,72.3,29.98,ESE,118,9.0,13.0,75,0.00,CLR,,0.00,WeatherDisplay:10.37,2013-05-07 06:15:00,
2013-05-07 00:30:00,81.0,73.1,29.97,ESE,122,10.0,14.0,77,0.00,CLR,,0.00,WeatherDisplay:10.37,2013-05-07 06:30:00,
2013-05-07 00:45:00,80.9,72.6,29.97,ESE,114,10.0,13.0,76,0.00,CLR,,0.00,WeatherDisplay:10.37,2013-05-07 06:45:00,
2013-05-07 01:00:00,80.9,73.4,29.97,ESE,119,9.0,13.0,78,0.00,CLR,,0.00,WeatherDisplay:10.37,2013-05-07 07:00:00,
2013-05-07 01:15:00,80.9,72.6,29.96,ESE,115,8.0,13.0,76,0.00,CLR,,0.00,WeatherDisplay:10.37,2013-05-07 07:15:00,
2013-05-07 01:30:00,80.9,73.0,29.96,ESE,110,6.0,13.0,77,0.00,CLR,,0.00,WeatherDisplay:10.37,2013-05-07 07:30:00,
2013-05-07 01:45:00,80.9,73.0,29.96,ESE,111,10.0,13.0,77,0.00,CLR,,0.00,WeatherDisplay:10.37,2013-05-07 07:45:00,
2013-05-07 02:00:00,80.9,73.0,29.96,ESE,115,8.0,13.0,77,0.00,CLR,,0.00,WeatherDisplay:10.37,2013-05-07 08:00:00,
2013-05-07 02:15:00,80.9,74.1,29.95,ESE,111,7.0,12.0,80,0.00,CLR,,0.00,WeatherDisplay:10.37,2013-05-07 08:15:00,
2013-05-07 02:30:00,80.7,73.2,29.95,ESE,119,8.0,13.0,78,0.00,CLR,,0.00,WeatherDisplay:10.37,2013-05-07 08:30:00,
2013-05-07 02:45:00,80.7,73.2,29.95,ESE,109,9.0,13.0,78,0.00,CLR,,0.00,WeatherDisplay:10.37,2013-05-07 08:45:00,
2013-05-07 03:00:00,80.7,73.6,29.95,ESE,109,8.0,12.0,79,0.00,CLR,,0.00,WeatherDisplay:10.37,2013-05-07 09:00:00,
2013-05-07 03:15:00,80.6,73.5,29.95,ESE,115,6.0,12.0,79,0.00,CLR,,0.00,WeatherDisplay:10.37,2013-05-07 09:15:00,
2013-05-07 03:30:00,80.7,73.6,29.96,ESE,116,7.0,12.0,79,0.00,CLR,,0.00,WeatherDisplay:10.37,2013-05-07 09:30:00,
2013-05-07 03:45:00,80.7,73.6,29.96,ESE,120,9.0,13.0,79,0.00,CLR,,0.00,WeatherDisplay:10.37,2013-05-07 09:45:00,
2013-05-07 04:00:00,80.7,73.6,29.97,ESE,116,9.0,12.0,79,0.00,CLR,,0.00,WeatherDisplay:10.37,2013-05-07 10:00:00,
2013-05-07 04:15:00,80.8,73.7,29.97,ESE,117,8.0,12.0,79,0.00,CLR,,0.00,WeatherDisplay:10.37,2013-05-07 10:15:00,
2013-05-07 04:30:00,80.8,73.6,29.97,ESE,118,9.0,12.0,79,0.00,CLR,,0.00,WeatherDisplay:10.37,2013-05-07 10:30:00,
2013-05-07 04:45:00,80.8,74.4,29.98,ESE,117,7.0,13.0,81,0.00,CLR,,0.00,WeatherDisplay:10.37,2013-05-07 10:45:00,
2013-05-07 05:00:00,80.8,74.0,29.98,ESE,104,9.0,12.0,80,0.00,CLR,,0.00,WeatherDisplay:10.37,2013-05-07 11:00:00,
2013-05-07 05:15:00,80.8,73.3,29.98,ESE,107,12.0,14.0,78,0.00,CLR,,0.00,WeatherDisplay:10.37,2013-05-07 11:15:00,
2013-05-07 05:30:00,80.8,73.3,29.99,ESE,116,8.0,13.0,78,0.00,CLR,,0.00,WeatherDisplay:10.37,2013-05-07 11:30:00,
2013-05-07 05:45:00,80.9,73.8,30.00,ESE,119,10.0,13.0,79,0.00,CLR,,0.00,WeatherDisplay:10.37,2013-05-07 11:45:00,
2013-05-07 06:00:00,81.0,74.2,30.00,ESE,119,8.0,13.0,80,0.00,CLR,,0.00,WeatherDisplay:10.37,2013-05-07 12:00:00,
2013-05-07 06:15:00,81.0,73.5,30.00,ESE,120,10.0,13.0,78,0.00,CLR,,0.00,WeatherDisplay:10.37,2013-05-07 12:15:00,
2013-05-07 06:30:00,81.1,73.2,30.01,ESE,111,10.0,13.0,77,0.00,CLR,,0.00,WeatherDisplay:10.37,2013-05-07 12:30:00,
2013-05-07 06:45:00,81.2,73.7,30.02,ESE,116,9.0,13.0,78,0.00,CLR,,0.00,WeatherDisplay:10.37,2013-05-07 12:45:00,
2013-05-07 07:00:00,81.3,73.8,30.02,ESE,117,10.0,13.0,78,0.00,CLR,,0.00,WeatherDisplay:10.37,2013-05-07 13:00:00,
2013-05-07 07:15:00,81.5,73.2,30.02,ESE,111,10.0,13.0,76,0.00,CLR,,0.00,WeatherDisplay:10.37,2013-05-07 13:15:00,
2013-05-07 07:30:00,81.7,73.8,30.02,ESE,119,7.0,13.0,77,0.00,CLR,,0.00,WeatherDisplay:10.37,2013-05-07 13:30:00,
2013-05-07 09:15:00,83.0,73.9,30.05,ESE,117,10.0,16.0,74,0.00,CLR,,0.00,WeatherDisplay:10.37,2013-05-07 15:15:00,
2013-05-07 09:30:00,83.3,74.5,30.05,ESE,121,12.0,13.0,75,0.00,CLR,,0.00,WeatherDisplay:10.37,2013-05-07 15:30:00,
2013-05-07 09:45:00,83.9,74.7,30.05,SE,124,10.0,13.0,74,0.00,CLR,,0.00,WeatherDisplay:10.37,2013-05-07 15:45:00,
2013-05-07 10:00:00,83.9,74.3,30.05,ESE,122,10.0,13.0,73,0.00,CLR,,0.00,WeatherDisplay:10.37,2013-05-07 16:00:00,
2013-05-07 10:15:00,84.1,74.9,30.05,ESE,120,8.0,13.0,74,0.00,CLR,,0.00,WeatherDisplay:10.37,2013-05-07 16:15:00,
2013-05-07 10:30:00,84.4,74.8,30.05,ESE,117,8.0,12.0,73,0.00,CLR,,0.00,WeatherDisplay:10.37,2013-05-07 16:30:00,
2013-05-07 10:45:00,84.0,74.4,30.04,ESE,119,10.0,13.0,73,0.00,CLR,,0.00,WeatherDisplay:10.37,2013-05-07 16:45:00,
2013-05-07 11:00:00,83.7,74.6,30.04,ESE,121,8.0,13.0,74,0.00,CLR,,0.00,WeatherDisplay:10.37,2013-05-07 17:00:00,
2013-05-07 11:15:00,84.3,75.1,30.04,ESE,117,8.0,13.0,74,0.00,CLR,,0.00,WeatherDisplay:10.37,2013-05-07 17:15:00,
2013-05-07 11:30:00,84.3,74.7,30.03,SE,126,8.0,13.0,73,0.00,CLR,,0.00,WeatherDisplay:10.37,2013-05-07 17:30:00,
2013-05-07 11:45:00,84.1,74.9,30.03,ESE,123,9.0,13.0,74,0.00,CLR,,0.00,WeatherDisplay:10.37,2013-05-07 17:45:00,
2013-05-07 12:00:00,84.2,74.6,30.02,ESE,117,8.0,13.0,73,0.00,CLR,,0.00,WeatherDisplay:10.37,2013-05-07 18:00:00,
2013-05-07 12:15:00,84.4,74.8,30.02,ESE,119,8.0,12.0,73,0.00,CLR,,0.00,WeatherDisplay:10.37,2013-05-07 18:15:00,
2013-05-07 12:30:00,84.5,74.5,30.02,ESE,122,8.0,12.0,72,0.00,CLR,,0.00,WeatherDisplay:10.37,2013-05-07 18:30:00,
2013-05-07 12:45:00,84.1,74.1,30.01,ESE,122,8.0,12.0,72,0.00,CLR,,0.00,WeatherDisplay:10.37,2013-05-07 18:45:00,
2013-05-07 13:00:00,84.1,74.5,30.00,ESE,120,8.0,13.0,73,0.00,CLR,,0.00,WeatherDisplay:10.37,2013-05-07 19:00:00,
2013-05-07 13:15:00,84.1,74.5,30.00,ESE,120,9.0,13.0,73,0.00,CLR,,0.00,WeatherDisplay:10.37,2013-05-07 19:15:00,
2013-05-07 13:30:00,84.0,74.0,30.00,ESE,122,9.0,12.0,72,0.00,CLR,,0.00,WeatherDisplay:10.37,2013-05-07 19:30:00,
2013-05-07 13:45:00,84.0,74.4,29.99,SE,124,9.0,12.0,73,0.00,CLR,,0.00,WeatherDisplay:10.37,2013-05-07 19:45:00,
2013-05-07 14:00:00,83.9,74.3,29.98,ESE,122,8.0,12.0,73,0.00,CLR,,0.00,WeatherDisplay:10.37,2013-05-07 20:00:00,
2013-05-07 14:15:00,84.0,74.4,29.98,ESE,121,8.0,12.0,73,0.00,CLR,,0.00,WeatherDisplay:10.37,2013-05-07 20:15:00,
2013-05-07 14:45:00,84.0,74.8,29.98,ESE,114,7.0,10.0,74,0.00,CLR,,0.00,WeatherDisplay:10.37,2013-05-07 20:45:00,
2013-05-07 15:00:00,84.1,74.5,29.98,ESE,118,5.0,9.0,73,0.00,CLR,,0.00,WeatherDisplay:10.37,2013-05-07 21:00:00,
2013-05-07 15:15:00,84.9,75.3,29.97,ESE,107,3.0,9.0,73,0.00,CLR,,0.00,WeatherDisplay:10.37,2013-05-07 21:15:00,
2013-05-07 15:30:00,84.4,74.8,29.97,East,99,3.0,10.0,73,0.00,CLR,,0.00,WeatherDisplay:10.37,2013-05-07 21:30:00,
2013-05-07 15:45:00,84.3,75.1,29.96,ESE,108,7.0,9.0,74,0.00,CLR,,0.00,WeatherDisplay:10.37,2013-05-07 21:45:00,
2013-05-07 16:00:00,84.2,75.0,29.96,East,93,3.0,10.0,74,0.00,CLR,,0.00,WeatherDisplay:10.37,2013-05-07 22:00:00,
2013-05-07 16:15:00,83.8,74.6,29.96,East,91,5.0,10.0,74,0.00,CLR,,0.00,WeatherDisplay:10.37,2013-05-07 22:15:00,
2013-05-07 16:26:00,83.5,74.7,29.96,East,86,5.0,10.0,75,0.00,CLR,,0.00,WeatherDisplay:10.37,2013-05-07 22:26:00,
2013-05-07 16:45:00,83.0,74.7,29.95,East,99,3.0,12.0,76,0.00,CLR,,0.00,WeatherDisplay:10.37,2013-05-07 22:45:00,
2013-05-07 17:00:00,82.9,74.9,29.95,East,88,5.0,12.0,77,0.00,CLR,,0.00,WeatherDisplay:10.37,2013-05-07 23:00:00,
2013-05-07 17:15:00,82.5,74.6,29.95,ESE,110,6.0,12.0,77,0.00,CLR,,0.00,WeatherDisplay:10.37,2013-05-07 23:15:00,
2013-05-07 17:30:00,82.4,74.8,29.95,East,97,5.0,10.0,78,0.00,CLR,,0.00,WeatherDisplay:10.37,2013-05-07 23:30:00,
2013-05-07 17:45:00,81.9,75.1,29.96,East,90,7.0,13.0,80,0.00,CLR,,0.00,WeatherDisplay:10.37,2013-05-07 23:45:00,
2013-05-07 18:00:00,81.8,74.6,29.95,East,97,6.0,14.0,79,0.00,CLR,,0.00,WeatherDisplay:10.37,2013-05-08 00:00:00,
2013-05-07 18:15:00,81.7,74.5,29.96,ESE,110,6.0,13.0,79,0.00,CLR,,0.00,WeatherDisplay:10.37,2013-05-08 00:15:00,
2013-05-07 18:30:00,81.7,75.3,29.96,ESE,102,8.0,13.0,81,0.00,CLR,,0.00,WeatherDisplay:10.37,2013-05-08 00:30:00,
2013-05-07 18:45:00,81.6,74.8,29.97,ESE,106,7.0,15.0,80,0.00,CLR,,0.00,WeatherDisplay:10.37,2013-05-08 00:45:00,
2013-05-07 19:00:00,81.6,75.2,29.98,ESE,105,7.0,16.0,81,0.00,CLR,,0.00,WeatherDisplay:10.37,2013-05-08 01:00:00,
2013-05-07 19:15:00,81.7,75.3,29.99,ESE,102,7.0,14.0,81,0.00,CLR,,0.00,WeatherDisplay:10.37,2013-05-08 01:15:00,
2013-05-07 19:30:00,81.7,74.9,29.99,East,101,7.0,16.0,80,0.00,CLR,,0.00,WeatherDisplay:10.37,2013-05-08 01:30:00,
2013-05-07 19:45:00,81.7,75.7,29.99,ESE,108,8.0,15.0,82,0.00,CLR,,0.00,WeatherDisplay:10.37,2013-05-08 01:45:00,
2013-05-07 20:00:00,81.7,75.7,30.00,ESE,112,12.0,15.0,82,0.00,CLR,,0.00,WeatherDisplay:10.37,2013-05-08 02:00:00,
2013-05-07 20:15:00,81.6,75.2,30.00,ESE,117,12.0,16.0,81,0.00,CLR,,0.00,WeatherDisplay:10.37,2013-05-08 02:15:00,
2013-05-07 20:30:00,81.5,74.7,30.00,ESE,110,13.0,15.0,80,0.00,CLR,,0.00,WeatherDisplay:10.37,2013-05-08 02:30:00,
2013-05-07 20:45:00,81.5,75.5,30.00,ESE,113,14.0,16.0,82,0.00,CLR,,0.00,WeatherDisplay:10.37,2013-05-08 02:45:00,
2013-05-07 21:00:00,81.5,75.1,30.00,ESE,121,15.0,18.0,81,0.00,CLR,,0.00,WeatherDisplay:10.37,2013-05-08 03:00:00,
2013-05-07 21:15:00,81.4,75.4,30.01,ESE,120,12.0,16.0,82,0.00,CLR,,0.00,WeatherDisplay:10.37,2013-05-08 03:15:00,
2013-05-07 21:30:00,81.4,75.4,30.01,ESE,123,10.0,16.0,82,0.00,CLR,,0.00,WeatherDisplay:10.37,2013-05-08 03:30:00,
2013-05-07 21:45:00,81.3,75.3,30.01,ESE,115,14.0,18.0,82,0.00,CLR,,0.00,WeatherDisplay:10.37,2013-05-08 03:45:00,
2013-05-07 22:00:00,81.3,75.3,30.01,ESE,122,16.0,18.0,82,0.00,CLR,,0.00,WeatherDisplay:10.37,2013-05-08 04:00:00,
2013-05-07 22:15:00,81.3,75.6,30.01,ESE,118,15.0,18.0,83,0.00,CLR,,0.00,WeatherDisplay:10.37,2013-05-08 04:15:00,
2013-05-07 22:30:00,81.2,75.2,30.00,ESE,118,16.0,20.0,82,0.00,CLR,,0.00,WeatherDisplay:10.37,2013-05-08 04:30:00,
2013-05-07 22:45:00,81.2,75.5,30.00,ESE,121,16.0,20.0,83,0.00,CLR,,0.00,WeatherDisplay:10.37,2013-05-08 04:45:00,
2013-05-07 23:00:00,81.1,75.1,30.00,ESE,117,15.0,21.0,82,0.00,CLR,,0.00,WeatherDisplay:10.37,2013-05-08 05:00:00,
2013-05-07 23:15:00,81.0,75.0,30.00,ESE,116,17.0,21.0,82,0.00,CLR,,0.00,WeatherDisplay:10.37,2013-05-08 05:15:00,
2013-05-07 23:30:00,81.0,75.0,30.01,ESE,117,12.0,19.0,82,0.00,CLR,,0.00,WeatherDisplay:10.37,2013-05-08 05:30:00,
2013-05-07 23:45:00,81.0,75.0,30.03,ESE,115,7.0,15.0,82,0.00,CLR,,0.00,WeatherDisplay:10.37,2013-05-08 05:45:00,